Time,TemperatureF,DewpointF,PressureIn,WindDirection,WindDirectionDegrees,WindSpeedMPH,WindSpeedGustMPH,Humidity,HourlyPrecipIn,Conditions,Clouds,dailyrainin,SoftwareType,DateUTC
2013-02-06 00:00:00,22.6,8.5,29.29,North,10,0.0,0.0,54,0.00,,,0.00,VWS V14.01,2013-02-06 06:00:00,
2013-02-06 00:05:00,22.6,8.5,29.29,North,10,0.0,0.0,54,0.00,,,0.00,VWS V14.01,2013-02-06 06:05:00,
2013-02-06 00:10:00,22.6,8.5,29.29,North,10,0.0,0.0,54,0.00,,,0.00,VWS V14.01,2013-02-06 06:10:00,
2013-02-06 00:15:00,22.5,8.3,29.29,North,10,0.0,0.0,54,0.00,,,0.00,VWS V14.01,2013-02-06 06:15:00,
2013-02-06 00:20:00,22.5,8.3,29.29,North,10,0.0,0.0,54,0.00,,,0.00,VWS V14.01,2013-02-06 06:20:00,
2013-02-06 00:25:00,22.5,8.3,29.29,North,10,0.0,0.0,54,0.00,,,0.00,VWS V14.01,2013-02-06 06:25:00,
2013-02-06 00:30:00,22.1,8.4,29.29,North,10,0.0,0.0,55,0.00,,,0.00,VWS V14.01,2013-02-06 06:30:00,
2013-02-06 00:35:00,22.1,8.4,29.29,North,10,0.0,0.0,55,0.00,,,0.00,VWS V14.01,2013-02-06 06:35:00,
2013-02-06 00:40:00,22.1,8.4,29.29,North,10,0.0,0.0,55,0.00,,,0.00,VWS V14.01,2013-02-06 06:40:00,
2013-02-06 00:45:00,22.1,8.4,29.29,North,10,0.0,0.0,55,0.00,,,0.00,VWS V14.01,2013-02-06 06:45:00,
2013-02-06 00:50:00,22.5,8.8,29.29,North,10,0.0,0.0,55,0.00,,,0.00,VWS V14.01,2013-02-06 06:50:00,
2013-02-06 00:55:00,22.5,8.8,29.29,North,10,0.0,0.0,55,0.00,,,0.00,VWS V14.01,2013-02-06 06:55:00,
2013-02-06 01:00:00,22.5,8.8,29.29,North,10,0.0,0.0,55,0.00,,,0.00,VWS V14.01,2013-02-06 07:00:00,
2013-02-06 01:05:00,22.3,8.6,29.29,North,10,0.0,0.0,55,0.00,,,0.00,VWS V14.01,2013-02-06 07:05:00,
2013-02-06 01:10:00,22.3,8.6,29.29,North,10,0.0,0.0,55,0.00,,,0.00,VWS V14.01,2013-02-06 07:10:00,
2013-02-06 01:15:00,22.3,8.6,29.29,North,10,0.0,0.0,55,0.00,,,0.00,VWS V14.01,2013-02-06 07:15:00,
2013-02-06 01:20:00,22.5,9.1,29.29,North,10,0.0,0.0,56,0.00,,,0.00,VWS V14.01,2013-02-06 07:20:00,
2013-02-06 01:25:00,22.3,9.0,29.29,North,10,0.0,0.0,56,0.00,,,0.00,VWS V14.01,2013-02-06 07:25:00,
2013-02-06 01:30:00,22.3,9.0,29.29,North,10,0.0,0.0,56,0.00,,,0.00,VWS V14.01,2013-02-06 07:30:00,
2013-02-06 01:35:00,22.3,9.0,29.29,North,10,0.0,0.0,56,0.00,,,0.00,VWS V14.01,2013-02-06 07:35:00,
2013-02-06 01:40:00,22.3,9.0,29.29,North,10,0.0,0.0,56,0.00,,,0.00,VWS V14.01,2013-02-06 07:40:00,
2013-02-06 01:45:00,22.3,9.0,29.29,North,10,0.0,0.0,56,0.00,,,0.00,VWS V14.01,2013-02-06 07:45:00,
2013-02-06 01:50:00,22.3,9.0,29.29,North,10,0.0,0.0,56,0.00,,,0.00,VWS V14.01,2013-02-06 07:50:00,
2013-02-06 01:55:00,22.3,9.0,29.29,North,10,0.0,0.0,56,0.00,,,0.00,VWS V14.01,2013-02-06 07:55:00,
2013-02-06 01:59:00,22.3,9.0,29.29,North,10,0.0,0.0,56,0.00,,,0.00,VWS V14.01,2013-02-06 07:59:00,
2013-02-06 02:04:00,22.3,9.0,29.29,North,10,0.0,0.0,56,0.00,,,0.00,VWS V14.01,2013-02-06 08:04:00,
2013-02-06 02:09:00,22.3,9.0,29.26,North,10,0.0,0.0,56,0.00,,,0.00,VWS V14.01,2013-02-06 08:09:00,
2013-02-06 02:14:00,22.3,9.0,29.26,North,10,0.0,0.0,56,0.00,,,0.00,VWS V14.01,2013-02-06 08:14:00,
2013-02-06 02:19:00,22.3,9.0,29.26,North,10,0.0,0.0,56,0.00,,,0.00,VWS V14.01,2013-02-06 08:19:00,
2013-02-06 02:24:00,22.3,9.0,29.26,North,10,0.0,0.0,56,0.00,,,0.00,VWS V14.01,2013-02-06 08:24:00,
2013-02-06 02:29:00,22.3,9.0,29.29,North,10,0.0,0.0,56,0.00,,,0.00,VWS V14.01,2013-02-06 08:29:00,
2013-02-06 02:34:00,22.3,9.0,29.29,North,10,0.0,0.0,56,0.00,,,0.00,VWS V14.01,2013-02-06 08:34:00,
2013-02-06 02:39:00,22.3,9.0,29.29,North,10,0.0,0.0,56,0.00,,,0.00,VWS V14.01,2013-02-06 08:39:00,
2013-02-06 02:44:00,22.3,9.0,29.29,North,10,0.0,0.0,56,0.00,,,0.00,VWS V14.01,2013-02-06 08:44:00,
2013-02-06 02:49:00,22.3,9.0,29.29,North,10,0.0,0.0,56,0.00,,,0.00,VWS V14.01,2013-02-06 08:49:00,
2013-02-06 02:54:00,22.3,9.0,29.29,North,10,0.0,0.0,56,0.00,,,0.00,VWS V14.01,2013-02-06 08:54:00,
2013-02-06 02:59:00,22.3,9.0,29.29,North,10,0.0,0.0,56,0.00,,,0.00,VWS V14.01,2013-02-06 08:59:00,
2013-02-06 03:04:00,22.3,9.0,29.29,North,10,0.0,0.0,56,0.00,,,0.00,VWS V14.01,2013-02-06 09:04:00,
2013-02-06 03:09:00,22.3,9.0,29.29,North,10,0.0,0.0,56,0.00,,,0.00,VWS V14.01,2013-02-06 09:09:00,
2013-02-06 03:14:00,22.3,9.0,29.29,North,10,0.0,0.0,56,0.00,,,0.00,VWS V14.01,2013-02-06 09:14:00,
2013-02-06 03:19:00,22.3,9.0,29.29,North,10,0.0,0.0,56,0.00,,,0.00,VWS V14.01,2013-02-06 09:19:00,
2013-02-06 03:24:00,22.3,9.0,29.29,North,10,0.0,0.0,56,0.00,,,0.00,VWS V14.01,2013-02-06 09:24:00,
2013-02-06 03:29:00,22.3,9.0,29.29,North,10,0.0,0.0,56,0.00,,,0.00,VWS V14.01,2013-02-06 09:29:00,
2013-02-06 03:34:00,22.3,9.0,29.29,North,10,0.0,0.0,56,0.00,,,0.00,VWS V14.01,2013-02-06 09:34:00,
2013-02-06 03:39:00,22.3,9.0,29.29,North,10,0.0,0.0,56,0.00,,,0.00,VWS V14.01,2013-02-06 09:39:00,
2013-02-06 03:44:00,22.3,9.0,29.29,North,10,0.0,0.0,56,0.00,,,0.00,VWS V14.01,2013-02-06 09:44:00,
2013-02-06 03:49:00,22.3,9.0,29.29,North,10,0.0,0.0,56,0.00,,,0.00,VWS V14.01,2013-02-06 09:49:00,
2013-02-06 03:54:00,22.3,9.0,29.29,North,10,0.0,0.0,56,0.00,,,0.00,VWS V14.01,2013-02-06 09:54:00,
2013-02-06 03:59:00,22.3,9.0,29.29,North,10,0.0,0.0,56,0.00,,,0.00,VWS V14.01,2013-02-06 09:59:00,
2013-02-06 04:04:00,22.3,9.0,29.29,North,10,0.0,0.0,56,0.00,,,0.00,VWS V14.01,2013-02-06 10:04:00,
2013-02-06 04:09:00,22.3,9.0,29.29,North,10,0.0,0.0,56,0.00,,,0.00,VWS V14.01,2013-02-06 10:09:00,
2013-02-06 04:14:00,22.3,9.0,29.29,North,10,0.0,0.0,56,0.00,,,0.00,VWS V14.01,2013-02-06 10:14:00,
2013-02-06 04:19:00,22.3,9.0,29.29,North,10,0.0,0.0,56,0.00,,,0.00,VWS V14.01,2013-02-06 10:19:00,
2013-02-06 04:24:00,22.3,9.0,29.29,North,10,0.0,0.0,56,0.00,,,0.00,VWS V14.01,2013-02-06 10:24:00,
2013-02-06 04:29:00,22.3,9.0,29.29,North,10,0.0,0.0,56,0.00,,,0.00,VWS V14.01,2013-02-06 10:29:00,
2013-02-06 04:34:00,22.3,9.0,29.29,North,10,0.0,0.0,56,0.00,,,0.00,VWS V14.01,2013-02-06 10:34:00,
2013-02-06 04:39:00,22.3,9.0,29.29,North,10,0.0,0.0,56,0.00,,,0.00,VWS V14.01,2013-02-06 10:39:00,
2013-02-06 04:44:00,22.3,9.0,29.29,North,10,0.0,0.0,56,0.00,,,0.00,VWS V14.01,2013-02-06 10:44:00,
2013-02-06 04:49:00,22.3,9.0,29.29,North,10,0.0,0.0,56,0.00,,,0.00,VWS V14.01,2013-02-06 10:49:00,
2013-02-06 04:54:00,22.3,9.0,29.29,North,10,0.0,0.0,56,0.00,,,0.00,VWS V14.01,2013-02-06 10:54:00,
2013-02-06 04:59:00,22.3,9.0,29.29,North,10,0.0,0.0,56,0.00,,,0.00,VWS V14.01,2013-02-06 10:59:00,
2013-02-06 05:04:00,22.3,9.0,29.29,North,10,0.0,0.0,56,0.00,,,0.00,VWS V14.01,2013-02-06 11:04:00,
2013-02-06 05:09:00,22.3,9.0,29.29,North,10,0.0,0.0,56,0.00,,,0.00,VWS V14.01,2013-02-06 11:09:00,
2013-02-06 05:14:00,22.3,9.0,29.29,North,10,0.0,0.0,56,0.00,,,0.00,VWS V14.01,2013-02-06 11:14:00,
2013-02-06 05:19:00,22.3,9.0,29.29,North,10,0.0,0.0,56,0.00,,,0.00,VWS V14.01,2013-02-06 11:19:00,
2013-02-06 05:24:00,25.7,14.1,29.29,North,10,0.0,0.0,61,0.00,,,0.00,VWS V14.01,2013-02-06 11:24:00,
2013-02-06 05:29:00,25.7,14.1,29.29,North,10,0.0,0.0,61,0.00,,,0.00,VWS V14.01,2013-02-06 11:29:00,
2013-02-06 05:34:00,25.7,14.1,29.29,North,10,0.0,0.0,61,0.00,,,0.00,VWS V14.01,2013-02-06 11:34:00,
2013-02-06 05:39:00,25.7,14.1,29.29,North,10,0.0,0.0,61,0.00,,,0.00,VWS V14.01,2013-02-06 11:39:00,
2013-02-06 05:44:00,25.7,14.1,29.29,North,10,0.0,0.0,61,0.00,,,0.00,VWS V14.01,2013-02-06 11:44:00,
2013-02-06 05:49:00,26.8,14.8,29.29,North,10,0.0,0.0,60,0.00,,,0.00,VWS V14.01,2013-02-06 11:49:00,
2013-02-06 05:54:00,26.8,14.8,29.29,North,10,0.0,0.0,60,0.00,,,0.00,VWS V14.01,2013-02-06 11:54:00,
2013-02-06 05:59:00,27.0,14.9,29.29,North,10,0.0,0.0,60,0.00,,,0.00,VWS V14.01,2013-02-06 11:59:00,
2013-02-06 06:04:00,27.0,14.9,29.29,SSW,192,0.0,0.0,60,0.00,,,0.00,VWS V14.01,2013-02-06 12:04:00,
2013-02-06 06:09:00,27.0,14.9,29.29,SSW,192,0.0,0.0,60,0.00,,,0.00,VWS V14.01,2013-02-06 12:09:00,
2013-02-06 06:14:00,27.5,16.2,29.29,SSW,192,0.0,0.0,62,0.00,,,0.00,VWS V14.01,2013-02-06 12:14:00,
2013-02-06 06:19:00,27.5,16.2,29.29,SSW,192,0.0,0.0,62,0.00,,,0.00,VWS V14.01,2013-02-06 12:19:00,
2013-02-06 06:24:00,27.7,16.7,29.29,SSW,192,0.0,0.0,63,0.00,,,0.00,VWS V14.01,2013-02-06 12:24:00,
2013-02-06 06:29:00,27.9,16.9,29.29,SSW,192,0.0,0.0,63,0.00,,,0.00,VWS V14.01,2013-02-06 12:29:00,
2013-02-06 06:34:00,27.9,16.9,29.29,SSW,192,0.0,0.0,63,0.00,,,0.00,VWS V14.01,2013-02-06 12:34:00,
2013-02-06 06:39:00,27.9,16.9,29.29,SSW,192,0.0,0.0,63,0.00,,,0.00,VWS V14.01,2013-02-06 12:39:00,
2013-02-06 06:44:00,27.9,16.9,29.29,SSW,192,0.0,0.0,63,0.00,,,0.00,VWS V14.01,2013-02-06 12:44:00,
2013-02-06 06:49:00,27.9,16.9,29.29,SSW,192,0.0,0.0,63,0.00,,,0.00,VWS V14.01,2013-02-06 12:49:00,
2013-02-06 06:54:00,27.9,16.9,29.26,SSW,192,0.0,0.0,63,0.00,,,0.00,VWS V14.01,2013-02-06 12:54:00,
2013-02-06 06:59:00,28.2,17.6,29.26,SSW,192,0.0,0.0,64,0.00,,,0.00,VWS V14.01,2013-02-06 12:59:00,
2013-02-06 07:04:00,28.2,17.6,29.26,SSW,192,0.0,0.0,64,0.00,,,0.00,VWS V14.01,2013-02-06 13:04:00,
2013-02-06 07:09:00,28.4,17.8,29.26,SSW,192,0.0,0.0,64,0.00,,,0.00,VWS V14.01,2013-02-06 13:09:00,
2013-02-06 07:14:00,28.6,18.0,29.26,SSW,192,0.0,0.0,64,0.00,,,0.00,VWS V14.01,2013-02-06 13:14:00,
2013-02-06 07:19:00,28.6,18.0,29.26,SSW,192,0.0,0.0,64,0.00,,,0.00,VWS V14.01,2013-02-06 13:19:00,
2013-02-06 07:24:00,28.6,18.3,29.26,SSW,192,0.0,0.0,65,0.00,,,0.00,VWS V14.01,2013-02-06 13:24:00,
2013-02-06 07:29:00,28.6,18.3,29.26,SSW,192,0.0,0.0,65,0.00,,,0.00,VWS V14.01,2013-02-06 13:29:00,
2013-02-06 07:34:00,28.8,18.5,29.26,SSE,157,2.7,2.7,65,0.00,,,0.00,VWS V14.01,2013-02-06 13:34:00,
2013-02-06 07:39:00,28.8,18.5,29.26,SSE,157,2.7,2.7,65,0.00,,,0.00,VWS V14.01,2013-02-06 13:39:00,
2013-02-06 07:44:00,28.8,18.5,29.26,SSE,157,2.7,2.7,65,0.00,,,0.00,VWS V14.01,2013-02-06 13:44:00,
2013-02-06 07:49:00,28.8,18.5,29.26,SSE,157,2.7,2.7,65,0.00,,,0.00,VWS V14.01,2013-02-06 13:49:00,
2013-02-06 07:54:00,28.8,18.5,29.26,SSE,157,2.7,2.7,65,0.00,,,0.00,VWS V14.01,2013-02-06 13:54:00,
2013-02-06 07:59:00,28.8,18.5,29.26,SSE,157,2.7,2.7,65,0.00,,,0.00,VWS V14.01,2013-02-06 13:59:00,
2013-02-06 08:04:00,28.9,18.7,29.26,SSE,157,2.7,2.7,65,0.00,,,0.00,VWS V14.01,2013-02-06 14:04:00,
2013-02-06 08:09:00,28.9,18.7,29.29,SSE,157,2.7,2.7,65,0.00,,,0.00,VWS V14.01,2013-02-06 14:09:00,
2013-02-06 08:14:00,29.3,19.0,29.29,SSE,157,2.7,2.7,65,0.00,,,0.00,VWS V14.01,2013-02-06 14:14:00,
2013-02-06 08:19:00,29.3,19.0,29.29,SSE,157,2.7,2.7,65,0.00,,,0.00,VWS V14.01,2013-02-06 14:19:00,
2013-02-06 08:24:00,29.3,18.6,29.29,SSE,157,2.7,2.7,64,0.00,,,0.00,VWS V14.01,2013-02-06 14:24:00,
2013-02-06 08:29:00,29.3,18.6,29.29,SSE,157,2.7,2.7,64,0.00,,,0.00,VWS V14.01,2013-02-06 14:29:00,
2013-02-06 08:34:00,29.5,18.8,29.29,SSE,157,2.7,2.7,64,0.00,,,0.00,VWS V14.01,2013-02-06 14:34:00,
2013-02-06 08:39:00,29.8,19.2,29.26,SSE,157,2.7,2.7,64,0.00,,,0.00,VWS V14.01,2013-02-06 14:39:00,
2013-02-06 08:44:00,29.8,19.2,29.26,SSE,157,2.7,2.7,64,0.00,,,0.00,VWS V14.01,2013-02-06 14:44:00,
2013-02-06 08:49:00,30.9,19.8,29.26,SSE,157,2.7,2.7,63,0.00,,,0.00,VWS V14.01,2013-02-06 14:49:00,
2013-02-06 08:54:00,31.3,19.8,29.26,SSE,157,2.7,2.7,62,0.00,,,0.00,VWS V14.01,2013-02-06 14:54:00,
2013-02-06 08:59:00,31.5,19.6,29.26,SSE,157,2.7,2.7,61,0.00,,,0.00,VWS V14.01,2013-02-06 14:59:00,
2013-02-06 09:04:00,31.5,19.6,29.26,SSE,157,2.7,2.7,61,0.00,,,0.00,VWS V14.01,2013-02-06 15:04:00,
2013-02-06 09:09:00,32.5,20.2,29.26,SSE,157,2.7,2.7,60,0.00,,,0.00,VWS V14.01,2013-02-06 15:09:00,
2013-02-06 09:14:00,32.5,20.2,29.26,SSE,157,2.7,2.7,60,0.00,,,0.00,VWS V14.01,2013-02-06 15:14:00,
2013-02-06 09:19:00,33.1,19.5,29.26,SSE,157,2.7,2.7,57,0.00,,,0.00,VWS V14.01,2013-02-06 15:19:00,
2013-02-06 09:24:00,33.4,19.0,29.26,SSE,157,2.7,2.7,55,0.00,,,0.00,VWS V14.01,2013-02-06 15:24:00,
2013-02-06 09:29:00,33.4,19.0,29.26,SSE,157,2.7,2.7,55,0.00,,,0.00,VWS V14.01,2013-02-06 15:29:00,
2013-02-06 09:34:00,34.0,18.7,29.26,SSE,157,2.7,2.7,53,0.00,,,0.00,VWS V14.01,2013-02-06 15:34:00,
2013-02-06 09:39:00,34.0,18.7,29.26,SSE,157,2.7,2.7,53,0.00,,,0.00,VWS V14.01,2013-02-06 15:39:00,
2013-02-06 09:44:00,34.3,18.1,29.26,SSE,157,2.7,2.7,51,0.00,,,0.00,VWS V14.01,2013-02-06 15:44:00,
2013-02-06 09:49:00,35.1,18.8,29.26,SSE,157,2.7,2.7,51,0.00,,,0.00,VWS V14.01,2013-02-06 15:49:00,
2013-02-06 09:54:00,35.4,18.6,29.26,SSE,157,2.7,2.7,50,0.00,,,0.00,VWS V14.01,2013-02-06 15:54:00,
2013-02-06 09:59:00,36.0,19.1,29.26,SSE,157,2.7,2.7,50,0.00,,,0.00,VWS V14.01,2013-02-06 15:59:00,
2013-02-06 10:04:00,36.0,19.1,29.26,SSE,157,2.7,2.7,50,0.00,,,0.00,VWS V14.01,2013-02-06 16:04:00,
2013-02-06 10:09:00,36.0,17.7,29.26,SSE,157,2.7,2.7,47,0.00,,,0.00,VWS V14.01,2013-02-06 16:09:00,
2013-02-06 10:14:00,36.5,18.2,29.26,SSE,157,2.7,2.7,47,0.00,,,0.00,VWS V14.01,2013-02-06 16:14:00,
2013-02-06 10:19:00,36.7,18.4,29.26,SSE,157,2.7,2.7,47,0.00,,,0.00,VWS V14.01,2013-02-06 16:19:00,
2013-02-06 10:24:00,37.0,18.2,29.26,SSE,157,2.7,2.7,46,0.00,,,0.00,VWS V14.01,2013-02-06 16:24:00,
2013-02-06 10:29:00,37.0,18.2,29.26,SSE,157,2.7,2.7,46,0.00,,,0.00,VWS V14.01,2013-02-06 16:29:00,
2013-02-06 10:34:00,37.4,18.0,29.26,SSE,157,2.7,2.7,45,0.00,,,0.00,VWS V14.01,2013-02-06 16:34:00,
2013-02-06 10:39:00,37.6,18.2,29.26,SSE,157,2.7,2.7,45,0.00,,,0.00,VWS V14.01,2013-02-06 16:39:00,
2013-02-06 10:44:00,37.9,18.5,29.26,SSW,210,3.6,3.6,45,0.00,,,0.00,VWS V14.01,2013-02-06 16:44:00,
2013-02-06 10:49:00,38.5,19.0,29.26,SSW,209,4.0,4.0,45,0.00,,,0.00,VWS V14.01,2013-02-06 16:49:00,
2013-02-06 10:53:00,38.5,18.5,29.26,SSW,213,6.3,6.3,44,0.00,,,0.00,VWS V14.01,2013-02-06 16:53:00,
2013-02-06 10:58:00,38.8,18.8,29.26,South,173,6.3,6.3,44,0.00,,,0.00,VWS V14.01,2013-02-06 16:58:00,
2013-02-06 11:03:00,39.0,19.0,29.26,South,184,3.6,5.4,44,0.00,,,0.00,VWS V14.01,2013-02-06 17:03:00,
2013-02-06 11:08:00,39.7,19.1,29.26,South,174,4.9,4.9,43,0.00,,,0.00,VWS V14.01,2013-02-06 17:08:00,
2013-02-06 11:13:00,39.7,19.1,29.26,South,174,4.9,4.9,43,0.00,,,0.00,VWS V14.01,2013-02-06 17:13:00,
2013-02-06 11:18:00,39.7,18.5,29.26,ESE,107,6.3,6.3,42,0.00,,,0.00,VWS V14.01,2013-02-06 17:18:00,
2013-02-06 11:23:00,39.7,18.5,29.26,South,172,5.8,6.3,42,0.00,,,0.00,VWS V14.01,2013-02-06 17:23:00,
2013-02-06 11:28:00,39.9,18.7,29.26,SSW,192,2.7,2.7,42,0.00,,,0.00,VWS V14.01,2013-02-06 17:28:00,
2013-02-06 11:33:00,39.9,18.7,29.26,South,170,5.8,5.8,42,0.00,,,0.00,VWS V14.01,2013-02-06 17:33:00,
2013-02-06 11:38:00,39.9,18.7,29.26,South,170,5.8,5.8,42,0.00,,,0.00,VWS V14.01,2013-02-06 17:38:00,
2013-02-06 11:43:00,39.9,18.7,29.26,SSW,196,3.6,3.6,42,0.00,,,0.00,VWS V14.01,2013-02-06 17:43:00,
2013-02-06 11:48:00,39.9,18.7,29.26,SSW,196,3.6,3.6,42,0.00,,,0.00,VWS V14.01,2013-02-06 17:48:00,
2013-02-06 11:53:00,39.9,18.7,29.26,SSW,196,3.6,3.6,42,0.00,,,0.00,VWS V14.01,2013-02-06 17:53:00,
2013-02-06 11:58:00,39.9,18.7,29.26,South,180,2.7,3.6,42,0.00,,,0.00,VWS V14.01,2013-02-06 17:58:00,
2013-02-06 12:03:00,39.9,18.7,29.26,South,180,2.7,2.7,42,0.00,,,0.00,VWS V14.01,2013-02-06 18:03:00,
2013-02-06 12:08:00,39.9,18.7,29.26,SSE,147,5.8,5.8,42,0.00,,,0.00,VWS V14.01,2013-02-06 18:08:00,
2013-02-06 12:13:00,39.9,18.7,29.26,SSE,159,7.6,7.6,42,0.00,,,0.00,VWS V14.01,2013-02-06 18:13:00,
2013-02-06 12:18:00,39.9,18.7,29.26,SSE,159,7.6,7.6,42,0.00,,,0.00,VWS V14.01,2013-02-06 18:18:00,
2013-02-06 12:23:00,39.9,18.7,29.26,SSE,149,5.8,7.6,42,0.00,,,0.00,VWS V14.01,2013-02-06 18:23:00,
2013-02-06 12:28:00,39.9,18.7,29.26,SSE,149,5.8,5.8,42,0.00,,,0.00,VWS V14.01,2013-02-06 18:28:00,
2013-02-06 12:33:00,39.9,18.7,29.26,SSE,149,3.1,5.8,42,0.00,,,0.00,VWS V14.01,2013-02-06 18:33:00,
2013-02-06 12:38:00,39.9,18.7,29.26,SSE,165,7.6,7.6,42,0.00,,,0.00,VWS V14.01,2013-02-06 18:38:00,
2013-02-06 12:43:00,39.9,18.7,29.26,SSE,167,6.3,6.3,42,0.00,,,0.00,VWS V14.01,2013-02-06 18:43:00,
2013-02-06 12:48:00,39.9,18.7,29.26,SSW,192,8.3,8.3,42,0.00,,,0.00,VWS V14.01,2013-02-06 18:48:00,
2013-02-06 12:53:00,39.9,18.7,29.26,SSE,166,5.4,5.4,42,0.00,,,0.00,VWS V14.01,2013-02-06 18:53:00,
2013-02-06 12:58:00,39.9,18.7,29.26,South,172,4.0,6.3,42,0.00,,,0.00,VWS V14.01,2013-02-06 18:58:00,
2013-02-06 13:03:00,39.9,18.7,29.26,SSW,195,3.1,3.1,42,0.00,,,0.00,VWS V14.01,2013-02-06 19:03:00,
2013-02-06 13:08:00,39.9,18.7,29.26,SSE,165,4.9,4.9,42,0.00,,,0.00,VWS V14.01,2013-02-06 19:08:00,
2013-02-06 13:13:00,39.9,18.7,29.26,South,187,6.3,6.3,42,0.00,,,0.00,VWS V14.01,2013-02-06 19:13:00,
2013-02-06 13:18:00,39.9,18.7,29.26,SSE,163,4.9,4.9,42,0.00,,,0.00,VWS V14.01,2013-02-06 19:18:00,
2013-02-06 13:23:00,39.9,18.7,29.26,South,175,3.1,4.9,42,0.00,,,0.00,VWS V14.01,2013-02-06 19:23:00,
2013-02-06 13:28:00,39.9,18.7,29.26,South,172,7.2,7.2,42,0.00,,,0.00,VWS V14.01,2013-02-06 19:28:00,
2013-02-06 13:33:00,39.9,18.7,29.26,South,182,3.6,5.4,42,0.00,,,0.00,VWS V14.01,2013-02-06 19:33:00,
2013-02-06 13:38:00,39.9,18.7,29.26,SE,141,4.0,4.0,42,0.00,,,0.00,VWS V14.01,2013-02-06 19:38:00,
2013-02-06 13:43:00,39.9,18.7,29.26,SW,234,3.1,4.9,42,0.00,,,0.00,VWS V14.01,2013-02-06 19:43:00,
2013-02-06 13:48:00,39.9,18.7,29.26,East,98,4.0,4.0,42,0.00,,,0.00,VWS V14.01,2013-02-06 19:48:00,
2013-02-06 13:53:00,39.9,18.7,29.26,South,181,4.0,4.0,42,0.00,,,0.00,VWS V14.01,2013-02-06 19:53:00,
2013-02-06 13:58:00,39.9,18.7,29.26,South,170,3.6,6.3,42,0.00,,,0.00,VWS V14.01,2013-02-06 19:58:00,
2013-02-06 14:03:00,39.9,18.7,29.26,South,181,3.1,3.1,42,0.00,,,0.00,VWS V14.01,2013-02-06 20:03:00,
2013-02-06 14:08:00,39.9,18.7,29.26,SSE,160,8.1,8.1,42,0.00,,,0.00,VWS V14.01,2013-02-06 20:08:00,
2013-02-06 14:13:00,39.9,18.7,29.26,South,183,4.9,4.9,42,0.00,,,0.00,VWS V14.01,2013-02-06 20:13:00,
2013-02-06 14:18:00,39.9,18.7,29.26,SSE,165,4.9,4.9,42,0.00,,,0.00,VWS V14.01,2013-02-06 20:18:00,
2013-02-06 14:23:00,39.9,18.7,29.15,SSE,166,2.7,3.1,42,0.00,,,0.00,VWS V14.01,2013-02-06 20:23:00,
2013-02-06 14:28:00,39.9,18.7,29.15,SSW,199,2.7,5.4,42,0.00,,,0.00,VWS V14.01,2013-02-06 20:28:00,
2013-02-06 14:33:00,39.9,18.7,29.15,SSW,199,2.7,2.7,42,0.00,,,0.00,VWS V14.01,2013-02-06 20:33:00,
2013-02-06 14:38:00,39.9,18.7,29.15,South,171,5.4,5.4,42,0.00,,,0.00,VWS V14.01,2013-02-06 20:38:00,
2013-02-06 14:43:00,45.1,21.1,29.15,South,172,3.6,3.6,38,0.00,,,0.00,VWS V14.01,2013-02-06 20:43:00,
2013-02-06 14:48:00,45.1,21.1,29.15,South,185,4.0,4.0,38,0.00,,,0.00,VWS V14.01,2013-02-06 20:48:00,
2013-02-06 14:53:00,45.1,21.1,29.15,South,178,4.0,4.0,38,0.00,,,0.00,VWS V14.01,2013-02-06 20:53:00,
2013-02-06 14:58:00,45.1,21.1,29.15,SW,218,5.8,5.8,38,0.00,,,0.00,VWS V14.01,2013-02-06 20:58:00,
2013-02-06 15:03:00,45.1,21.1,29.15,SSE,155,5.4,5.4,38,0.00,,,0.00,VWS V14.01,2013-02-06 21:03:00,
2013-02-06 15:08:00,45.0,20.3,29.15,SSW,210,8.7,8.7,37,0.00,,,0.00,VWS V14.01,2013-02-06 21:08:00,
2013-02-06 15:13:00,45.0,20.3,29.15,SSE,161,6.3,8.7,37,0.00,,,0.00,VWS V14.01,2013-02-06 21:13:00,
2013-02-06 15:18:00,45.0,20.3,29.15,SW,223,4.0,10.5,37,0.00,,,0.00,VWS V14.01,2013-02-06 21:18:00,
2013-02-06 15:23:00,45.0,20.3,29.12,SW,235,2.2,5.8,37,0.00,,,0.00,VWS V14.01,2013-02-06 21:23:00,
2013-02-06 15:28:00,45.0,20.3,29.12,South,183,3.1,3.1,37,0.00,,,0.00,VWS V14.01,2013-02-06 21:28:00,
2013-02-06 15:33:00,45.0,20.3,29.12,South,187,3.6,5.4,37,0.00,,,0.00,VWS V14.01,2013-02-06 21:33:00,
2013-02-06 15:38:00,44.4,20.4,29.12,South,182,4.0,4.0,38,0.00,,,0.00,VWS V14.01,2013-02-06 21:38:00,
2013-02-06 15:43:00,44.4,20.4,29.12,South,185,4.0,4.0,38,0.00,,,0.00,VWS V14.01,2013-02-06 21:43:00,
2013-02-06 15:48:00,44.4,20.4,29.12,South,190,3.6,4.0,38,0.00,,,0.00,VWS V14.01,2013-02-06 21:48:00,
2013-02-06 15:53:00,44.4,20.4,29.12,SSE,148,7.2,7.2,38,0.00,,,0.00,VWS V14.01,2013-02-06 21:53:00,
2013-02-06 15:58:00,44.4,20.4,29.12,South,187,5.4,7.2,38,0.00,,,0.00,VWS V14.01,2013-02-06 21:58:00,
2013-02-06 16:03:00,44.4,20.4,29.12,WSW,239,2.7,6.3,38,0.00,,,0.00,VWS V14.01,2013-02-06 22:03:00,
2013-02-06 16:08:00,43.9,19.9,29.12,South,189,4.0,4.0,38,0.00,,,0.00,VWS V14.01,2013-02-06 22:08:00,
2013-02-06 16:13:00,43.9,19.9,29.12,South,175,2.7,5.8,38,0.00,,,0.00,VWS V14.01,2013-02-06 22:13:00,
2013-02-06 16:18:00,43.7,19.8,29.12,SSE,153,3.1,5.4,38,0.00,,,0.00,VWS V14.01,2013-02-06 22:18:00,
2013-02-06 16:23:00,43.7,19.8,29.12,SE,144,4.9,4.9,38,0.00,,,0.00,VWS V14.01,2013-02-06 22:23:00,
2013-02-06 16:28:00,43.5,20.2,29.12,SSE,154,2.2,6.3,39,0.00,,,0.00,VWS V14.01,2013-02-06 22:28:00,
2013-02-06 16:33:00,43.5,20.2,29.12,SSE,159,3.1,6.3,39,0.00,,,0.00,VWS V14.01,2013-02-06 22:33:00,
2013-02-06 16:38:00,43.5,20.2,29.12,South,183,3.6,3.6,39,0.00,,,0.00,VWS V14.01,2013-02-06 22:38:00,
2013-02-06 16:43:00,43.3,20.1,29.12,SSE,160,2.2,3.1,39,0.00,,,0.00,VWS V14.01,2013-02-06 22:43:00,
2013-02-06 16:48:00,43.3,20.1,29.12,South,177,3.1,3.1,39,0.00,,,0.00,VWS V14.01,2013-02-06 22:48:00,
2013-02-06 16:53:00,43.3,20.1,29.12,SSW,195,0.0,0.0,39,0.00,,,0.00,VWS V14.01,2013-02-06 22:53:00,
2013-02-06 16:58:00,43.3,20.1,29.12,South,182,2.7,2.7,39,0.00,,,0.00,VWS V14.01,2013-02-06 22:58:00,
2013-02-06 17:03:00,43.0,19.7,29.12,South,172,3.1,3.6,39,0.00,,,0.00,VWS V14.01,2013-02-06 23:03:00,
2013-02-06 17:08:00,43.0,19.7,29.12,SSE,162,0.0,3.1,39,0.00,,,0.00,VWS V14.01,2013-02-06 23:08:00,
2013-02-06 17:13:00,42.8,19.6,29.12,South,181,0.0,0.0,39,0.00,,,0.00,VWS V14.01,2013-02-06 23:13:00,
2013-02-06 17:18:00,42.6,19.4,29.12,South,181,0.0,0.0,39,0.00,,,0.00,VWS V14.01,2013-02-06 23:18:00,
2013-02-06 17:23:00,42.6,19.4,29.12,South,181,0.0,0.0,39,0.00,,,0.00,VWS V14.01,2013-02-06 23:23:00,
2013-02-06 17:28:00,42.4,19.8,29.12,South,181,0.0,0.0,40,0.00,,,0.00,VWS V14.01,2013-02-06 23:28:00,
2013-02-06 17:33:00,42.4,19.8,29.12,South,181,6.3,6.3,40,0.00,,,0.00,VWS V14.01,2013-02-06 23:33:00,
2013-02-06 17:38:00,42.4,19.8,29.12,South,181,6.3,6.3,40,0.00,,,0.00,VWS V14.01,2013-02-06 23:38:00,
2013-02-06 17:43:00,42.4,19.8,29.12,South,181,6.3,6.3,40,0.00,,,0.00,VWS V14.01,2013-02-06 23:43:00,
2013-02-06 17:48:00,42.3,19.7,29.12,South,177,2.7,6.3,40,0.00,,,0.00,VWS V14.01,2013-02-06 23:48:00,
2013-02-06 17:53:00,41.7,19.2,29.12,South,183,0.0,2.7,40,0.00,,,0.00,VWS V14.01,2013-02-06 23:53:00,
2013-02-06 17:58:00,41.5,19.0,29.12,South,183,0.0,0.0,40,0.00,,,0.00,VWS V14.01,2013-02-06 23:58:00,
2013-02-06 18:03:00,41.2,18.7,29.12,South,183,0.0,0.0,40,0.00,,,0.00,VWS V14.01,2013-02-07 00:03:00,
2013-02-06 18:08:00,41.2,18.7,29.12,South,183,0.0,0.0,40,0.00,,,0.00,VWS V14.01,2013-02-07 00:08:00,
2013-02-06 18:13:00,41.2,18.7,29.12,South,183,0.0,0.0,40,0.00,,,0.00,VWS V14.01,2013-02-07 00:13:00,
2013-02-06 18:18:00,41.2,18.7,29.12,South,183,0.0,0.0,40,0.00,,,0.00,VWS V14.01,2013-02-07 00:18:00,
2013-02-06 18:23:00,41.2,18.7,29.12,South,181,3.1,3.1,40,0.00,,,0.00,VWS V14.01,2013-02-07 00:23:00,
2013-02-06 18:28:00,41.4,18.9,29.12,South,181,3.1,3.1,40,0.00,,,0.00,VWS V14.01,2013-02-07 00:28:00,
2013-02-06 18:33:00,41.4,18.9,29.12,South,181,3.1,3.1,40,0.00,,,0.00,VWS V14.01,2013-02-07 00:33:00,
2013-02-06 18:38:00,41.4,18.9,29.12,South,180,0.0,0.0,40,0.00,,,0.00,VWS V14.01,2013-02-07 00:38:00,
2013-02-06 18:43:00,41.4,18.9,29.12,South,180,0.0,0.0,40,0.00,,,0.00,VWS V14.01,2013-02-07 00:43:00,
2013-02-06 18:48:00,41.4,18.9,29.12,South,177,2.7,2.7,40,0.00,,,0.00,VWS V14.01,2013-02-07 00:48:00,
2013-02-06 18:53:00,41.4,18.9,29.12,South,177,2.7,2.7,40,0.00,,,0.00,VWS V14.01,2013-02-07 00:53:00,
2013-02-06 18:58:00,41.4,18.9,29.12,South,177,2.7,2.7,40,0.00,,,0.00,VWS V14.01,2013-02-07 00:58:00,
2013-02-06 19:03:00,41.4,18.9,29.12,South,177,2.7,2.7,40,0.00,,,0.00,VWS V14.01,2013-02-07 01:03:00,
2013-02-06 19:08:00,41.4,18.9,29.12,South,177,0.0,2.7,40,0.00,,,0.00,VWS V14.01,2013-02-07 01:08:00,
2013-02-06 19:13:00,41.4,18.9,29.12,South,177,0.0,0.0,40,0.00,,,0.00,VWS V14.01,2013-02-07 01:13:00,
2013-02-06 19:18:00,41.4,18.9,29.12,South,181,0.0,0.0,40,0.00,,,0.00,VWS V14.01,2013-02-07 01:18:00,
2013-02-06 19:23:00,41.4,18.9,29.12,South,181,0.0,0.0,40,0.00,,,0.00,VWS V14.01,2013-02-07 01:23:00,
2013-02-06 19:28:00,41.4,18.9,29.12,South,181,0.0,0.0,40,0.00,,,0.00,VWS V14.01,2013-02-07 01:28:00,
2013-02-06 19:33:00,41.4,18.9,29.12,South,182,0.0,0.0,40,0.00,,,0.00,VWS V14.01,2013-02-07 01:33:00,
2013-02-06 19:38:00,41.4,18.9,29.12,South,182,0.0,0.0,40,0.00,,,0.00,VWS V14.01,2013-02-07 01:38:00,
2013-02-06 19:42:00,41.4,18.9,29.12,South,182,0.0,0.0,40,0.00,,,0.00,VWS V14.01,2013-02-07 01:42:00,
2013-02-06 19:47:00,41.4,18.9,29.12,South,182,0.0,0.0,40,0.00,,,0.00,VWS V14.01,2013-02-07 01:47:00,
2013-02-06 19:52:00,41.4,18.9,29.12,South,182,0.0,0.0,40,0.00,,,0.00,VWS V14.01,2013-02-07 01:52:00,
2013-02-06 19:57:00,41.4,18.9,29.12,South,182,0.0,0.0,40,0.00,,,0.00,VWS V14.01,2013-02-07 01:57:00,
2013-02-06 20:02:00,41.4,18.9,29.12,South,182,0.0,0.0,40,0.00,,,0.00,VWS V14.01,2013-02-07 02:02:00,
2013-02-06 20:07:00,41.4,18.9,29.12,South,182,0.0,0.0,40,0.00,,,0.00,VWS V14.01,2013-02-07 02:07:00,
2013-02-06 20:12:00,41.4,18.9,29.12,South,182,0.0,0.0,40,0.00,,,0.00,VWS V14.01,2013-02-07 02:12:00,
2013-02-06 20:17:00,41.4,18.9,29.12,South,182,0.0,0.0,40,0.00,,,0.00,VWS V14.01,2013-02-07 02:17:00,
2013-02-06 20:22:00,41.4,18.9,29.12,South,182,0.0,0.0,40,0.00,,,0.00,VWS V14.01,2013-02-07 02:22:00,
2013-02-06 20:27:00,41.4,18.9,29.12,South,182,0.0,0.0,40,0.00,,,0.00,VWS V14.01,2013-02-07 02:27:00,
2013-02-06 20:32:00,41.4,18.9,29.12,South,182,0.0,0.0,40,0.00,,,0.00,VWS V14.01,2013-02-07 02:32:00,
2013-02-06 20:37:00,41.4,18.9,29.12,South,182,0.0,0.0,40,0.00,,,0.00,VWS V14.01,2013-02-07 02:37:00,
2013-02-06 20:42:00,41.4,18.9,29.12,South,182,0.0,0.0,40,0.00,,,0.00,VWS V14.01,2013-02-07 02:42:00,
2013-02-06 20:47:00,41.4,18.9,29.12,South,182,0.0,0.0,40,0.00,,,0.00,VWS V14.01,2013-02-07 02:47:00,
2013-02-06 20:52:00,41.4,18.9,29.12,South,182,0.0,0.0,40,0.00,,,0.00,VWS V14.01,2013-02-07 02:52:00,
2013-02-06 20:57:00,41.4,18.9,29.12,South,182,0.0,0.0,40,0.00,,,0.00,VWS V14.01,2013-02-07 02:57:00,
2013-02-06 21:02:00,41.4,18.9,29.12,South,182,0.0,0.0,40,0.00,,,0.00,VWS V14.01,2013-02-07 03:02:00,
2013-02-06 21:07:00,41.4,18.9,29.12,South,182,0.0,0.0,40,0.00,,,0.00,VWS V14.01,2013-02-07 03:07:00,
2013-02-06 21:12:00,41.4,18.9,29.12,South,182,0.0,0.0,40,0.00,,,0.00,VWS V14.01,2013-02-07 03:12:00,
2013-02-06 21:17:00,41.4,18.9,29.12,South,182,0.0,0.0,40,0.00,,,0.00,VWS V14.01,2013-02-07 03:17:00,
2013-02-06 21:22:00,41.4,18.9,29.12,South,182,0.0,0.0,40,0.00,,,0.00,VWS V14.01,2013-02-07 03:22:00,
2013-02-06 21:27:00,41.4,18.9,29.12,South,182,0.0,0.0,40,0.00,,,0.00,VWS V14.01,2013-02-07 03:27:00,
2013-02-06 21:32:00,41.4,18.9,29.12,South,182,0.0,0.0,40,0.00,,,0.00,VWS V14.01,2013-02-07 03:32:00,
2013-02-06 21:37:00,41.4,18.9,29.12,South,182,0.0,0.0,40,0.00,,,0.00,VWS V14.01,2013-02-07 03:37:00,
2013-02-06 21:42:00,41.4,18.9,29.12,South,182,0.0,0.0,40,0.00,,,0.00,VWS V14.01,2013-02-07 03:42:00,
2013-02-06 21:47:00,41.4,18.9,29.12,South,185,0.0,0.0,40,0.00,,,0.00,VWS V14.01,2013-02-07 03:47:00,
2013-02-06 21:52:00,41.4,18.9,29.12,South,185,0.0,0.0,40,0.00,,,0.00,VWS V14.01,2013-02-07 03:52:00,
2013-02-06 21:57:00,38.1,17.6,29.12,South,185,0.0,0.0,43,0.00,,,0.00,VWS V14.01,2013-02-07 03:57:00,
2013-02-06 22:02:00,38.1,17.6,29.12,South,185,0.0,0.0,43,0.00,,,0.00,VWS V14.01,2013-02-07 04:02:00,
2013-02-06 22:07:00,38.1,17.6,29.12,South,185,0.0,0.0,43,0.00,,,0.00,VWS V14.01,2013-02-07 04:07:00,
2013-02-06 22:12:00,38.1,17.6,29.12,South,185,0.0,0.0,43,0.00,,,0.00,VWS V14.01,2013-02-07 04:12:00,
2013-02-06 22:17:00,38.1,17.6,29.12,South,185,0.0,0.0,43,0.00,,,0.00,VWS V14.01,2013-02-07 04:17:00,
2013-02-06 22:22:00,38.1,17.6,29.12,South,185,0.0,0.0,43,0.00,,,0.00,VWS V14.01,2013-02-07 04:22:00,
2013-02-06 22:27:00,36.9,17.0,29.12,South,185,0.0,0.0,44,0.00,,,0.00,VWS V14.01,2013-02-07 04:27:00,
2013-02-06 22:32:00,36.9,17.0,29.12,South,185,0.0,0.0,44,0.00,,,0.00,VWS V14.01,2013-02-07 04:32:00,
2013-02-06 22:37:00,36.9,17.0,29.12,South,185,0.0,0.0,44,0.00,,,0.00,VWS V14.01,2013-02-07 04:37:00,
2013-02-06 22:42:00,36.9,17.0,29.12,South,185,0.0,0.0,44,0.00,,,0.00,VWS V14.01,2013-02-07 04:42:00,
2013-02-06 22:47:00,36.9,17.0,29.12,South,185,0.0,0.0,44,0.00,,,0.00,VWS V14.01,2013-02-07 04:47:00,
2013-02-06 22:52:00,36.9,18.0,29.12,South,185,0.0,0.0,46,0.00,,,0.00,VWS V14.01,2013-02-07 04:52:00,
2013-02-06 22:57:00,36.9,18.0,29.12,South,185,0.0,0.0,46,0.00,,,0.00,VWS V14.01,2013-02-07 04:57:00,
2013-02-06 23:00:00,36.9,18.0,29.12,South,185,0.0,0.0,46,0.00,,,0.00,VWS V14.01,2013-02-07 05:00:00,
2013-02-06 23:05:00,36.9,18.0,29.12,South,185,0.0,0.0,46,0.00,,,0.00,VWS V14.01,2013-02-07 05:05:00,
2013-02-06 23:10:00,37.9,19.5,29.12,South,185,0.0,0.0,47,0.00,,,0.00,VWS V14.01,2013-02-07 05:10:00,
2013-02-06 23:15:00,37.9,19.5,29.12,South,185,0.0,0.0,47,0.00,,,0.00,VWS V14.01,2013-02-07 05:15:00,
2013-02-06 23:20:00,37.9,19.5,29.12,South,185,0.0,0.0,47,0.00,,,0.00,VWS V14.01,2013-02-07 05:20:00,
2013-02-06 23:25:00,38.7,20.7,29.12,South,181,0.0,0.0,48,0.00,,,0.00,VWS V14.01,2013-02-07 05:25:00,
2013-02-06 23:30:00,38.7,20.7,29.12,South,181,0.0,0.0,48,0.00,,,0.00,VWS V14.01,2013-02-07 05:30:00,
2013-02-06 23:35:00,38.8,20.4,29.12,South,181,0.0,0.0,47,0.00,,,0.00,VWS V14.01,2013-02-07 05:35:00,
2013-02-06 23:40:00,38.8,20.4,29.12,South,181,0.0,0.0,47,0.00,,,0.00,VWS V14.01,2013-02-07 05:40:00,
2013-02-06 23:45:00,38.8,20.4,29.12,South,181,0.0,0.0,47,0.00,,,0.00,VWS V14.01,2013-02-07 05:45:00,
2013-02-06 23:50:00,39.2,20.2,29.12,South,179,0.0,0.0,46,0.00,,,0.00,VWS V14.01,2013-02-07 05:50:00,
2013-02-06 23:55:00,39.2,20.2,29.12,South,179,0.0,0.0,46,0.00,,,0.00,VWS V14.01,2013-02-07 05:55:00,